| time (UTC) | temp C | wind direction | speed KPH | gust KPH | rain 1hr cm | rain 24hr cm | rain mn cm | humidity % | barometer mb |
| 20260502195733 | 17 | 0.0 | 0.0 | 0.00 | 0.00 | 0.00 | 36 | ||
| 20260502194733 | 17 | 0.0 | 0.0 | 0.00 | 0.00 | 0.00 | 35 | ||
| 20260502193733 | 18 | 0.0 | 0.0 | 0.00 | 0.00 | 0.00 | 35 | ||
| 20260502192733 | 18 | 0.0 | 0.0 | 0.00 | 0.00 | 0.00 | 35 | ||
| 20260502191732 | 18 | 0.0 | 0.0 | 0.00 | 0.00 | 0.00 | 34 | ||
| 20260502190732 | 18 | 0.0 | 0.0 | 0.00 | 0.00 | 0.00 | 34 | ||
| 20260502185732 | 18 | 0.0 | 0.0 | 0.00 | 0.00 | 0.00 | 33 | ||
| 20260502184732 | 19 | 0.0 | 0.0 | 0.00 | 0.00 | 0.00 | 33 | ||
| 20260502183732 | 20 | 0.0 | 0.0 | 0.00 | 0.00 | 0.00 | 31 | ||
| 20260502182733 | 20 | 0.0 | 0.0 | 0.00 | 0.00 | 0.00 | 30 | ||
| 20260502181732 | 20 | 0.0 | 0.0 | 0.00 | 0.00 | 0.00 | 30 | ||
| 20260502180732 | 21 | 0.0 | 0.0 | 0.00 | 0.00 | 0.00 | 29 | ||
| 20260502163732 | 23 | 0.0 | 0.0 | 0.00 | 0.00 | 0.00 | 22 | ||
| 20260502162732 | 24 | 0.0 | 0.0 | 0.00 | 0.00 | 0.00 | 20 | ||
| 20260502161732 | 25 | 0.0 | 0.0 | 0.00 | 0.00 | 0.00 | 20 | ||
| 20260502160732 | 24 | 0.0 | 0.0 | 0.00 | 0.00 | 0.00 | 20 | ||
| 20260502151733 | 23 | 0.0 | 0.0 | 0.00 | 0.00 | 0.00 | 22 | ||
| 20260502150733 | 24 | 0.0 | 0.0 | 0.00 | 0.00 | 0.00 | 22 | ||
| 20260502130732 | 25 | 0.0 | 0.0 | 0.00 | 0.00 | 0.00 | 25 | ||
| 20260502123732 | 25 | 0.0 | 0.0 | 0.00 | 0.00 | 0.00 | 26 | ||
| 20260502122733 | 25 | 0.0 | 0.0 | 0.00 | 0.00 | 0.00 | 27 | ||
| 20260502121732 | 25 | 0.0 | 0.0 | 0.00 | 0.00 | 0.00 | 27 | ||
| 20260502120732 | 25 | 0.0 | 0.0 | 0.00 | 0.00 | 0.00 | 28 | ||
| 20260502115732 | 24 | 0.0 | 0.0 | 0.00 | 0.00 | 0.00 | 28 | ||
| 20260502114732 | 24 | 0.0 | 0.0 | 0.00 | 0.00 | 0.00 | 29 | ||
| 20260502113732 | 24 | 0.0 | 0.0 | 0.00 | 0.00 | 0.00 | 29 | ||
| 20260502112733 | 23 | 0.0 | 0.0 | 0.00 | 0.00 | 0.00 | 31 | ||
| 20260502111732 | 23 | 0.0 | 0.0 | 0.00 | 0.00 | 0.00 | 32 | ||
| 20260502110732 | 23 | 0.0 | 0.0 | 0.00 | 0.00 | 0.00 | 32 | ||
| 20260502105732 | 23 | 0.0 | 0.0 | 0.00 | 0.00 | 0.00 | 32 | ||
| 20260502104732 | 22 | 0.0 | 0.0 | 0.00 | 0.00 | 0.00 | 33 | ||
| 20260502103732 | 22 | 0.0 | 0.0 | 0.00 | 0.00 | 0.00 | 33 | ||
| 20260502102732 | 22 | 0.0 | 0.0 | 0.00 | 0.00 | 0.00 | 34 | ||
| 20260502101732 | 22 | 0.0 | 0.0 | 0.00 | 0.00 | 0.00 | 35 | ||
| 20260502100732 | 21 | 0.0 | 0.0 | 0.00 | 0.00 | 0.00 | 36 | ||
| 20260502090733 | 19 | 0.0 | 0.0 | 0.00 | 0.00 | 0.00 | 41 | ||
| 20260502070732 | 13 | 0.0 | 0.0 | 0.00 | 0.00 | 0.00 | 51 | ||
| 20260502065732 | 13 | 0.0 | 0.0 | 0.00 | 0.00 | 0.00 | 51 | ||
| 20260502064732 | 13 | 0.0 | 0.0 | 0.00 | 0.00 | 0.00 | 52 | ||
| 20260502063733 | 12 | 0.0 | 0.0 | 0.00 | 0.00 | 0.00 | 52 | ||
| 20260502062735 | 12 | 0.0 | 0.0 | 0.00 | 0.00 | 0.00 | 53 | ||
| 20260502061733 | 12 | 0.0 | 0.0 | 0.00 | 0.00 | 0.00 | 53 | ||
| 20260502060733 | 12 | 0.0 | 0.0 | 0.00 | 0.00 | 0.00 | 53 | ||
| 20260502055733 | 11 | 0.0 | 0.0 | 0.00 | 0.00 | 0.00 | 54 | ||
| 20260502054732 | 11 | 0.0 | 0.0 | 0.00 | 0.00 | 0.00 | 55 | ||
| 20260502053732 | 11 | 0.0 | 0.0 | 0.00 | 0.00 | 0.00 | 56 | ||
| 20260502052733 | 10 | 0.0 | 0.0 | 0.00 | 0.00 | 0.00 | 57 | ||
| 20260502051733 | 10 | 0.0 | 0.0 | 0.00 | 0.00 | 0.00 | 57 | ||
| 20260502050733 | 10 | 0.0 | 0.0 | 0.00 | 0.00 | 0.00 | 57 | ||
| 20260502045732 | 10 | 0.0 | 0.0 | 0.00 | 0.00 | 0.00 | 58 | ||
| 20260502044732 | 10 | 0.0 | 0.0 | 0.00 | 0.00 | 0.00 | 58 | ||
| 20260502043732 | 9 | 0.0 | 0.0 | 0.00 | 0.00 | 0.00 | 58 | ||
| 20260502042733 | 9 | 0.0 | 0.0 | 0.00 | 0.00 | 0.00 | 59 | ||
| 20260502041732 | 8 | 0.0 | 0.0 | 0.00 | 0.00 | 0.00 | 59 | ||
| 20260502040732 | 8 | 0.0 | 0.0 | 0.00 | 0.00 | 0.00 | 59 | ||
| 20260502035732 | 8 | 0.0 | 0.0 | 0.00 | 0.00 | 0.00 | 58 | ||
| 20260502034732 | 8 | 0.0 | 0.0 | 0.00 | 0.00 | 0.00 | 58 | ||
| 20260502033732 | 8 | 0.0 | 0.0 | 0.00 | 0.00 | 0.00 | 57 | ||
| 20260502032733 | 8 | 0.0 | 0.0 | 0.00 | 0.00 | 0.00 | 57 | ||
| 20260502031733 | 8 | 0.0 | 0.0 | 0.00 | 0.00 | 0.00 | 57 | ||
| 20260502030732 | 8 | 0.0 | 0.0 | 0.00 | 0.00 | 0.00 | 56 | ||
| 20260502025732 | 8 | 0.0 | 0.0 | 0.00 | 0.00 | 0.00 | 56 | ||
| 20260502024732 | 8 | 0.0 | 0.0 | 0.00 | 0.00 | 0.00 | 55 | ||
| 20260502023732 | 8 | 0.0 | 0.0 | 0.00 | 0.00 | 0.00 | 54 | ||
| 20260502022733 | 8 | 0.0 | 0.0 | 0.00 | 0.00 | 0.00 | 54 | ||
| 20260502021732 | 8 | 0.0 | 0.0 | 0.00 | 0.00 | 0.00 | 54 | ||
| 20260502020732 | 8 | 0.0 | 0.0 | 0.00 | 0.00 | 0.00 | 53 | ||
| 20260502015732 | 8 | 0.0 | 0.0 | 0.00 | 0.00 | 0.00 | 53 | ||
| 20260502014732 | 9 | 0.0 | 0.0 | 0.00 | 0.00 | 0.00 | 53 | ||
| 20260502013732 | 9 | 0.0 | 0.0 | 0.00 | 0.00 | 0.00 | 53 | ||
| 20260502012733 | 9 | 0.0 | 0.0 | 0.00 | 0.00 | 0.00 | 52 | ||
| 20260502011733 | 9 | 0.0 | 0.0 | 0.00 | 0.00 | 0.00 | 52 | ||
| 20260502010733 | 9 | 0.0 | 0.0 | 0.00 | 0.00 | 0.00 | 51 | ||
| 20260502005733 | 9 | 0.0 | 0.0 | 0.00 | 0.00 | 0.00 | 51 | ||
| 20260502004733 | 9 | 0.0 | 0.0 | 0.00 | 0.00 | 0.00 | 51 | ||
| 20260502003733 | 9 | 0.0 | 0.0 | 0.00 | 0.00 | 0.00 | 51 | ||
| 20260502002733 | 9 | 0.0 | 0.0 | 0.00 | 0.00 | 0.00 | 51 | ||
| 20260502001732 | 9 | 0.0 | 0.0 | 0.00 | 0.00 | 0.00 | 50 | ||
| 20260502000733 | 9 | 0.0 | 0.0 | 0.00 | 0.00 | 0.00 | 50 | ||
| 20260501235732 | 9 | 0.0 | 0.0 | 0.00 | 0.00 | 0.00 | 49 | ||
| 20260501234732 | 9 | 0.0 | 0.0 | 0.00 | 0.00 | 0.00 | 49 | ||
| 20260501233732 | 10 | 0.0 | 0.0 | 0.00 | 0.00 | 0.00 | 48 | ||
| 20260501232732 | 10 | 0.0 | 0.0 | 0.00 | 0.00 | 0.00 | 47 | ||
| 20260501231733 | 10 | 0.0 | 0.0 | 0.00 | 0.00 | 0.00 | 47 | ||
| 20260501230732 | 10 | 0.0 | 0.0 | 0.00 | 0.00 | 0.00 | 46 | ||
| 20260501225732 | 10 | 0.0 | 0.0 | 0.00 | 0.00 | 0.00 | 46 | ||
| 20260501224732 | 10 | 0.0 | 0.0 | 0.00 | 0.00 | 0.00 | 45 | ||
| 20260501223732 | 11 | 0.0 | 0.0 | 0.00 | 0.00 | 0.00 | 45 | ||
| 20260501222733 | 11 | 0.0 | 0.0 | 0.00 | 0.00 | 0.00 | 44 | ||
| 20260501221732 | 11 | 0.0 | 0.0 | 0.00 | 0.00 | 0.00 | 43 | ||
| 20260501220732 | 11 | 0.0 | 0.0 | 0.00 | 0.00 | 0.00 | 43 | ||
| 20260501215732 | 12 | 0.0 | 0.0 | 0.00 | 0.00 | 0.00 | 43 | ||
| 20260501214732 | 12 | 0.0 | 0.0 | 0.00 | 0.00 | 0.00 | 42 | ||
| 20260501213732 | 12 | 0.0 | 0.0 | 0.00 | 0.00 | 0.00 | 42 | ||
| 20260501212733 | 12 | 0.0 | 0.0 | 0.00 | 0.00 | 0.00 | 41 | ||
| 20260501211732 | 13 | 0.0 | 0.0 | 0.00 | 0.00 | 0.00 | 40 | ||
| 20260501210732 | 13 | 0.0 | 0.0 | 0.00 | 0.00 | 0.00 | 40 | ||
| 20260501205732 | 13 | 0.0 | 0.0 | 0.00 | 0.00 | 0.00 | 39 | ||
| 20260501204732 | 13 | 0.0 | 0.0 | 0.00 | 0.00 | 0.00 | 39 | ||
| 20260501203732 | 14 | 0.0 | 0.0 | 0.00 | 0.00 | 0.00 | 38 | ||
| 20260501202733 | 14 | 0.0 | 0.0 | 0.00 | 0.00 | 0.00 | 38 | ||
| 20260501201732 | 15 | 0.0 | 0.0 | 0.00 | 0.00 | 0.00 | 37 | ||
| 20260501200732 | 15 | 0.0 | 0.0 | 0.00 | 0.00 | 0.00 | 36 |